Regional Weather Roundup
Issued by NWS Midland/Odessa, TX

Skip options and go directly to product.
Home | Oldest Version | Previous Version | Current Version | All | Text Only | Save Text | Print | Product List | Glossary On

Skip product version selection by date and time.   
563
ASUS44 KMAF 042310
RWRMAF
MIDLAND AREA WEATHER ROUNDUP
NATIONAL WEATHER SERVICE MIDLAND TX
600 PM CDT TUE AUG 04 2015

...IN SOUTHWEST TEXAS AND SOUTHEAST NEW MEXICO...

CITY           SKY/WX    TMP DP  RH WIND       PRES   REMARKS
ALPINE         CLOUDY    78  61  55 W7        30.13F
ANDREWS        FAIR      96  56  26 W3        29.96F
ARTESIA        SUNNY     99  52  20 NE5G12    29.96F
BIG SPRING     SUNNY     96  57  27 S8        29.94F
CARLSBAD       MOSUNNY  104  46  14 NE9       29.93F HX 100
DRYDEN           N/A    101  62  27 VRB7      29.89F HX 102
FORT STOCKTON  SUNNY     98  53  22 W3        29.93F
GUAD PASS      MOSUNNY   87  51  28 E9        30.15F
HOBBS          MOSUNNY   93  59  31 E7        29.99F
MARFA          CLOUDY    79  66  65 SE7       30.13S
MIDLAND AIRPK  PTSUNNY  101  55  22 SE7       29.94S
MIDLAND INTL   SUNNY     99  54  22 CALM      29.93F
ODESSA         SUNNY     98  52  21 CALM      29.95F
PECOS          SUNNY    101  51  18 CALM      29.90S
PRESIDIO       FAIR      97  57  26 MISG      29.94R
SEMINOLE       SUNNY     96  56  26 CALM      29.98F
SNYDER         SUNNY     97  63  32 S12       29.93S
WINK           SUNNY    101  57  23 E10       29.90F HX 100
$$
...OTHER STATIONS IN TEXAS...

CITY           SKY/WX    TMP DP  RH WIND       PRES   REMARKS
ABILENE        PTSUNNY   95  63  34 SE13      29.91F
AMARILLO       SUNNY     88  65  46 S9        29.98F
AUSTIN         MOSUNNY   97  66  36 S9        29.88F HX 100
BROWNSVILLE    MOSUNNY   90  74  59 SE18      29.91S
CORPUS CHRISTI MOSUNNY   88  77  69 SE20      29.91S HX 100
DALLAS FTW     MOSUNNY   97  62  31 S12       29.88S
DEL RIO        SUNNY    101  62  27 SE10      29.83F HX 102
EL PASO        MOSUNNY   97  45  16 W5        30.00F
HOUSTON INT    PTSUNNY   88  73  61 S7        29.93S
LUBBOCK        MOSUNNY   92  64  39 S9        29.97F
SAN ANGELO     SUNNY    100  60  26 E7        29.89F HX 100
SAN ANTONIO    MOSUNNY   97  66  36 SE13      29.90F HX 100
WACO           SUNNY     98  67  36 S10       29.88F HX 102
WICHITA FALLS  NOT AVBL
$$
...OTHER LOCATIONS IN NEW MEXICO...

CITY           SKY/WX    TMP DP  RH WIND       PRES   REMARKS
ALAMAGORDO     MOSUNNY   97  45  16 NW14      30.03S
ALBUQUERQUE    MOSUNNY   92  43  18 N12       30.12F
CANNON AFB     SUNNY     93  52  24 W9G17     30.01F
CLOVIS         MOSUNNY   93  54  26 W9        30.02F
HOLLOMAN AFB   SUNNY     97  41  14 NW12      30.00F
ROSWELL        LGT RAIN 103  41  12 NE8       29.95F
RUIDOSO          N/A    N/A N/A N/A MISG        N/A
SANTA FE       MOSUNNY   90  36  14 NW14G20   30.18F
TRUTH OR CONSE MOSUNNY   93  47  20 SW15      30.08S
TUCUMCARI      SUNNY     95  51  22 SW8       29.96F
$$

USA.gov is the U.S. government's official web portal to all federal, state and local government web resources and services.